Flag Weather past 2 weeks in Medellin, Colombia

Now
55 °F

Scattered clouds.


Feels Like: 55 °F
Forecast: 66 / 76 °F
Wind: No wind

Location: Rionegro / J. M. Cordova

Current Time: Oct 31, 2014 at 6:27:28 AM

Latest Report: Oct 31, 2014 at 6:00 AM


Visibility: 2 mi

Pressure: 30.24 "Hg

Humidity: 100%

Dew point: 55 °F

Location of MedellinLocation

Historic Weather in Medellin — Graph

°F

Medellin temperature yesterday

Maximum temperature yesterday: 73 °F (at 10:00 AM)
Minimum temperature yesterday: 55 °F (at 12:00 AM)
Average temperature yesterday: 60 °F

Past Weeks' High & Low Weather Summary

 TemperatureHumidityPressure
High73 °F (Oct 21, 2:00 PM)100% (Oct 17, 4:00 AM)30.38 "Hg (Oct 17, 4:00 AM)
Low52 °F (Oct 23, 6:00 AM)44% (Oct 16, 3:00 PM)30.08 "Hg (Oct 30, 10:00 AM)
Average61 °F83%30.28 "Hg
* Reported Oct 16 5:00 AM — Oct 31 5:00 AM, Medellin, Weather by CustomWeather, © 2014

Note: Actual official high and low records may vary slightly from our data, if they occured in-between our weather recording intervals... More about our weather records

Advertising

Medellin weather history for previous 24 hours

 ConditionsComfort  
Time TempWeatherWind HumidityBarometerVisibility
5:00 AM
Oct 31
57 °FPassing clouds.No wind94%30.22 "Hg2 mi
4:00 AM57 °FDrizzle. Mostly cloudy.No wind94%30.22 "Hg2 mi
3:00 AM57 °FDrizzle. Mostly cloudy.No wind94%30.24 "Hg2 mi
2:00 AM57 °FDrizzle. Mostly cloudy.No wind94%30.25 "Hg2 mi
1:00 AM57 °FRain. Mostly cloudy.No wind94%30.26 "Hg2 mi
12:00 AM57 °FRain. Mostly cloudy.No wind94%30.27 "Hg2 mi
11:00 PM
Oct 30
57 °FRain. Mostly cloudy.No wind100%30.28 "Hg2 mi
10:00 PM57 °FDrizzle. Mostly cloudy.No wind94%30.26 "Hg4 mi
9:00 PM57 °FOvercast.No wind94%30.25 "HgN/A
8:00 PM57 °FMostly cloudy.No wind94%30.21 "HgN/A
7:00 PM57 °FDrizzle. Mostly cloudy.No wind94%30.19 "HgN/A
6:00 PM59 °FScattered showers. Passing clouds.No wind82%30.16 "HgN/A
5:00 PM59 °FThunderstorms. Broken clouds.6 mph82%30.16 "HgN/A
4:00 PM59 °FThunderstorms. Partly sunny.7 mph88%30.15 "HgN/A
3:00 PM70 °FThunderstorms. Broken clouds.9 mph64%30.13 "HgN/A
2:00 PM72 °FScattered showers. Broken clouds.9 mph61%30.15 "HgN/A
1:00 PM72 °FBroken clouds.No wind50%30.19 "HgN/A
12:00 PM70 °FBroken clouds.5 mph57%30.22 "HgN/A
11:00 AM68 °FBroken clouds.7 mph60%30.25 "HgN/A
10:00 AM73 °FScattered clouds.No wind61%30.08 "Hg4 mi
9:00 AM61 °FBroken clouds.5 mph83%30.26 "HgN/A
8:00 AM57 °FFog.No wind94%30.23 "Hg2 mi
7:00 AM55 °FFog.No wind94%30.22 "Hg2 mi
6:00 AM55 °FFog.5 mph100%30.21 "Hg2 mi
Weather by CustomWeather, © 2014

See weather overviewHow to use our weather pages